TimeEST,TemperatureF,Dew PointF,Humidity,Sea Level PressureIn,VisibilityMPH,Wind Direction,Wind SpeedMPH,Gust SpeedMPH,PrecipitationIn,Events,Conditions,WindDirDegrees,DateUTC
12:54 AM,35.1,25.0,67,29.98,10.0,NE,9.2,-,N/A,,Overcast,40,2013-03-06 05:54:00
1:54 AM,34.0,25.0,70,29.98,10.0,NE,8.1,-,N/A,,Overcast,40,2013-03-06 06:54:00
2:54 AM,34.0,25.0,70,29.96,10.0,NNE,6.9,-,N/A,,Overcast,30,2013-03-06 07:54:00
3:54 AM,33.1,25.0,72,29.94,10.0,NNE,9.2,-,N/A,,Overcast,30,2013-03-06 08:54:00
4:54 AM,34.0,26.1,73,29.94,10.0,NNE,12.7,-,N/A,,Overcast,30,2013-03-06 09:54:00
5:31 AM,33.8,26.6,75,29.94,10.0,NNE,13.8,-,N/A,,Overcast,30,2013-03-06 10:31:00
5:51 AM,33.8,26.6,75,29.94,10.0,NNE,11.5,-,N/A,,Overcast,30,2013-03-06 10:51:00
5:54 AM,34.0,26.1,73,29.95,10.0,NNE,11.5,-,N/A,,Overcast,30,2013-03-06 10:54:00
6:54 AM,33.1,26.1,75,29.95,10.0,NNE,13.8,-,N/A,,Overcast,30,2013-03-06 11:54:00
7:54 AM,34.0,28.0,79,29.96,10.0,NNE,12.7,-,N/A,,Overcast,30,2013-03-06 12:54:00
8:47 AM,35.6,28.4,75,29.94,5.0,NNE,13.8,21.9,0.00,Snow,Light Snow,30,2013-03-06 13:47:00
8:54 AM,35.1,30.0,82,29.96,5.0,NNE,11.5,-,0.00,Snow,Light Snow,30,2013-03-06 13:54:00
9:10 AM,35.6,30.2,81,29.95,5.0,NE,12.7,-,0.00,Snow,Light Snow,40,2013-03-06 14:10:00
9:24 AM,35.6,30.2,81,29.95,3.0,NE,13.8,-,0.00,Snow,Light Snow,40,2013-03-06 14:24:00
9:54 AM,35.1,30.9,85,29.95,5.0,NNE,12.7,21.9,0.00,Snow,Light Snow,30,2013-03-06 14:54:00
10:54 AM,36.0,33.1,89,29.95,10.0,NNE,11.5,-,0.00,Rain,Light Rain,30,2013-03-06 15:54:00
11:03 AM,37.4,33.8,87,29.94,10.0,NNE,12.7,-,0.00,,Overcast,30,2013-03-06 16:03:00
11:34 AM,37.4,33.8,87,29.93,9.0,NNE,12.7,-,0.00,Rain,Light Rain,30,2013-03-06 16:34:00
11:51 AM,39.2,35.6,87,29.92,10.0,NNE,11.5,-,0.00,,Overcast,30,2013-03-06 16:51:00
11:54 AM,39.0,35.1,86,29.93,10.0,NNE,12.7,-,0.00,,Overcast,20,2013-03-06 16:54:00
12:02 PM,39.2,33.8,81,29.92,9.0,NE,13.8,23.0,0.00,Rain,Light Rain,40,2013-03-06 17:02:00
12:54 PM,39.9,35.1,83,29.92,9.0,NE,17.3,23.0,0.01,Rain,Light Rain,40,2013-03-06 17:54:00
1:01 PM,42.8,35.6,76,29.91,10.0,NE,11.5,23.0,0.00,,Overcast,40,2013-03-06 18:01:00
1:11 PM,39.2,30.2,70,29.92,10.0,ENE,23.0,38.0,0.00,Rain,Light Rain,60,2013-03-06 18:11:00
1:18 PM,39.2,30.2,70,29.91,10.0,ENE,20.7,36.8,0.00,Rain,Light Rain,70,2013-03-06 18:18:00
1:54 PM,41.0,30.0,65,29.92,10.0,ENE,19.6,32.2,0.00,,Overcast,60,2013-03-06 18:54:00
2:54 PM,41.0,28.0,60,29.93,10.0,ENE,18.4,29.9,0.00,,Overcast,60,2013-03-06 19:54:00
3:54 PM,39.9,27.0,60,29.93,10.0,NE,15.0,25.3,N/A,,Overcast,50,2013-03-06 20:54:00
4:54 PM,39.9,27.0,60,29.96,10.0,NE,19.6,34.5,N/A,,Overcast,50,2013-03-06 21:54:00
5:54 PM,39.0,27.0,62,29.99,10.0,NE,17.3,26.5,N/A,,Overcast,40,2013-03-06 22:54:00
6:54 PM,39.0,26.1,60,30.00,10.0,NE,20.7,29.9,N/A,,Overcast,50,2013-03-06 23:54:00
7:54 PM,37.9,25.0,60,30.00,10.0,NE,20.7,35.7,N/A,,Overcast,50,2013-03-07 00:54:00
8:54 PM,37.0,24.1,59,30.01,10.0,NE,16.1,25.3,N/A,,Overcast,40,2013-03-07 01:54:00
9:54 PM,37.0,24.1,59,30.01,10.0,NNE,17.3,25.3,N/A,,Overcast,20,2013-03-07 02:54:00
10:54 PM,37.0,24.1,59,30.01,10.0,NNE,17.3,28.8,N/A,,Overcast,30,2013-03-07 03:54:00
11:54 PM,36.0,24.1,62,30.01,10.0,NNE,18.4,24.2,N/A,,Overcast,30,2013-03-07 04:54:00